"startDT [UTC]","vpos","CH4 [ppm]","stdev(CH4) [ppm]","CO2 [ppm]","stdev(CO2) [ppm]","H2O [ppm]","stdev(H2O)","p_LGR [torr]","T_LGR [C]","mt1_LGR [us]","mt2_LGR [us]","T_ECpre [C]","T_EC1 [C]","T_EC2 [C]","p_inlet [hPa]","p_in [hPa]","p_out [hPa]","T_inlet [C]","RH_inlet [%]","dwpt_inlet [C]","T_vent [C]","RH_vent [%]","dwpt_vent [C]","flow_vent [l min-1]","flow_inlet [l min-1]","dwpt_sample [C]","T_room [C]"
2012-02-19 00:00:00,0.0,1.9374,0.0010,404.53,0.42,1.3,7.4,138.15,28.46,24.61,36.33,0.04,-272.74,-272.74,-49,562,-934,22.3,1.7,-31.0,22.3,1.8,-30.6,5.73,2.28,-29.6,25.8
2012-02-19 00:01:00,0.0,1.9369,0.0009,404.38,0.43,0.1,6.4,138.16,28.42,24.60,36.33,0.04,-272.74,-272.74,-49,562,-935,22.2,1.7,-31.0,22.3,1.8,-30.7,5.73,2.35,-29.7,25.4
2012-02-19 00:02:00,0.0,1.9368,0.0011,404.27,0.41,-0.8,1.2,138.16,28.39,24.60,36.33,0.04,-272.74,-272.73,-50,561,-935,22.2,1.7,-31.1,22.2,1.8,-30.7,5.73,2.45,-29.9,25.6
2012-02-19 00:03:00,0.0,1.9363,0.0010,404.12,0.40,-0.6,1.7,138.16,28.36,24.60,36.33,0.04,-272.74,-272.73,-50,560,-934,22.1,1.7,-31.1,22.1,1.8,-30.8,5.73,2.40,-29.9,26.0
2012-02-19 00:04:00,0.0,1.9363,0.0009,404.12,0.43,-0.6,2.6,138.15,28.33,24.60,36.34,0.04,-272.74,-272.73,-49,560,-934,22.1,1.7,-31.1,22.2,1.8,-30.7,5.73,2.47,-29.8,26.2
2012-02-19 00:05:00,0.0,1.9360,0.0009,404.10,0.41,-0.3,3.2,138.15,28.31,24.60,36.34,0.04,-272.73,-272.74,-49,559,-934,22.1,1.7,-31.1,22.2,1.8,-30.7,5.73,2.48,-29.8,26.4
2012-02-19 00:06:00,0.0,1.9361,0.0010,404.17,0.45,0.3,5.2,138.15,28.30,24.60,36.33,0.04,-272.74,-272.74,-49,560,-934,22.1,1.7,-31.0,22.2,1.8,-30.7,5.73,2.32,-29.7,26.6
2012-02-19 00:07:00,0.0,1.9359,0.0007,404.20,0.45,0.5,6.6,138.14,28.30,24.60,36.33,0.04,-272.74,-272.74,-49,560,-934,22.1,1.7,-31.1,22.2,1.8,-30.7,5.73,2.34,-29.7,26.7
2012-02-19 00:08:00,0.0,1.9362,0.0009,404.28,0.46,0.3,4.0,138.14,28.30,24.60,36.33,0.04,-272.73,-272.74,-49,560,-934,22.1,1.7,-31.1,22.2,1.8,-30.7,5.73,2.48,-29.6,26.8
2012-02-19 00:09:00,0.0,1.9367,0.0009,404.27,0.46,3.5,11.3,138.13,28.30,24.60,36.33,0.04,-272.74,-272.74,-49,560,-933,22.1,1.7,-31.2,22.3,1.8,-30.7,5.73,2.46,-29.5,26.9
2012-02-19 00:10:00,0.0,1.9368,0.0010,404.40,0.39,2.7,9.8,138.13,28.30,24.60,36.33,0.04,-272.74,-272.74,-49,559,-934,22.1,1.7,-31.4,22.3,1.7,-31.0,5.73,2.32,-29.4,26.9
2012-02-19 00:11:00,0.0,1.9368,0.0011,404.34,0.41,1.7,10.0,138.13,28.31,24.60,36.33,0.04,-272.74,-272.74,-49,560,-933,22.1,1.7,-31.4,22.3,1.7,-30.9,5.73,2.35,-29.4,27.0
2012-02-19 00:12:00,0.0,1.9380,0.0011,404.47,0.41,7.8,16.4,138.13,28.31,24.60,36.33,0.04,-272.74,-272.74,-49,559,-934,22.2,1.7,-31.1,22.3,1.8,-30.7,5.73,2.50,-29.3,27.0
2012-02-19 00:13:00,0.0,1.9382,0.0007,404.34,0.39,8.1,16.3,138.12,28.32,24.60,36.34,0.04,-272.74,-272.74,-48,560,-933,22.2,1.8,-30.8,22.3,1.8,-30.4,5.73,2.43,-29.3,27.1
2012-02-19 00:14:00,0.0,1.9385,0.0010,404.45,0.39,11.7,17.8,138.12,28.33,24.60,36.33,0.04,-272.74,-272.74,-48,560,-933,22.2,1.8,-30.5,22.3,1.9,-30.1,5.73,2.30,-29.2,27.1
2012-02-19 00:15:00,0.0,1.9388,0.0010,404.59,0.41,11.7,19.0,138.12,28.34,24.60,36.33,0.04,-272.74,-272.73,-49,560,-933,22.2,1.8,-30.5,22.4,1.8,-30.1,5.73,2.38,-29.2,27.1
2012-02-19 00:16:00,0.0,1.9387,0.0010,404.52,0.55,12.0,17.8,138.12,28.35,24.60,36.33,0.04,-272.73,-272.73,-49,560,-933,22.2,1.8,-30.7,22.4,1.8,-30.2,5.73,2.50,-29.2,27.1
2012-02-19 00:17:00,0.0,1.9388,0.0009,404.45,0.38,18.4,26.9,138.12,28.36,24.60,36.33,0.04,-272.74,-272.74,-49,560,-933,22.2,1.7,-30.8,22.4,1.8,-30.4,5.73,2.41,-29.1,27.1
2012-02-19 00:18:00,0.0,1.9386,0.0011,404.43,0.40,12.3,20.8,138.12,28.37,24.60,36.34,0.04,-272.74,-272.74,-48,560,-934,22.3,1.7,-31.0,22.4,1.8,-30.6,5.73,2.30,-29.1,27.1
2012-02-19 00:19:00,0.0,1.9373,0.0010,404.32,0.47,15.8,20.9,138.11,28.38,24.60,36.33,0.04,-272.73,-272.74,-48,560,-933,22.3,1.7,-30.9,22.4,1.8,-30.6,5.73,2.41,-29.0,27.1
2012-02-19 00:20:00,0.0,1.9368,0.0010,404.27,0.44,11.6,23.3,138.11,28.39,24.60,36.33,0.04,-272.73,-272.74,-49,560,-933,22.3,1.7,-30.8,22.5,1.8,-30.4,5.73,2.50,-29.0,27.1
2012-02-19 00:21:00,0.0,1.9384,0.0008,404.26,0.41,19.3,27.9,138.11,28.40,24.60,36.34,0.04,-272.73,-272.74,-49,560,-933,22.3,1.8,-30.4,22.5,1.8,-30.1,5.73,2.37,-29.0,27.1
2012-02-19 00:22:00,0.0,1.9385,0.0008,404.42,0.40,20.0,24.9,138.11,28.41,24.60,36.34,0.04,-272.74,-272.74,-49,560,-933,22.3,1.9,-30.1,22.5,1.9,-29.6,5.73,2.30,-28.9,27.2
2012-02-19 00:23:00,0.0,1.9388,0.0008,404.42,0.43,17.7,25.3,138.11,28.42,24.61,36.34,0.04,-272.74,-272.74,-48,561,-933,22.3,1.9,-29.7,22.5,2.0,-29.3,5.73,2.45,-28.9,27.2
2012-02-19 00:24:00,0.0,1.9397,0.0012,404.26,0.45,25.7,27.2,138.11,28.43,24.60,36.34,0.04,-272.74,-272.74,-48,560,-933,22.4,2.0,-29.5,22.5,2.0,-29.1,5.73,2.48,-28.9,27.3
2012-02-19 00:25:00,0.0,1.9399,0.0012,404.51,0.46,19.2,24.2,138.11,28.44,24.60,36.33,0.04,-272.73,-272.74,-49,559,-932,22.4,2.0,-29.4,22.5,2.0,-29.0,5.73,2.33,-28.8,27.3
2012-02-19 00:26:00,0.0,1.9387,0.0009,404.22,0.45,24.9,25.4,138.11,28.45,24.60,36.34,0.04,-272.73,-272.73,-49,560,-934,22.4,2.0,-29.3,22.6,2.0,-29.0,5.73,2.33,-28.8,27.4
2012-02-19 00:27:00,0.0,1.9381,0.0009,404.42,0.46,31.4,30.0,138.11,28.46,24.60,36.34,0.04,-272.74,-272.74,-49,561,-933,22.4,2.0,-29.3,22.6,2.0,-28.9,5.73,2.49,-28.8,27.5
2012-02-19 00:28:00,0.0,1.9385,0.0008,404.23,0.41,22.4,24.8,138.11,28.47,24.60,36.35,0.04,-272.74,-272.74,-48,561,-934,22.4,2.0,-29.3,22.6,2.0,-28.9,5.73,2.43,-28.7,27.5
2012-02-19 00:29:00,0.0,1.9401,0.0010,404.27,0.44,28.4,23.8,138.10,28.48,24.60,36.34,0.04,-272.74,-272.73,-47,561,-934,22.5,2.0,-29.0,22.6,2.1,-28.6,5.73,2.29,-28.7,27.6
2012-02-19 00:30:00,0.0,1.9405,0.0009,404.38,0.36,24.4,24.5,138.11,28.49,24.60,36.34,0.04,-272.74,-272.74,-49,560,-933,22.5,2.0,-29.1,22.7,2.1,-28.6,5.73,2.42,-28.7,27.7
2012-02-19 00:31:00,0.0,1.9411,0.0009,404.36,0.38,29.0,28.5,138.10,28.50,24.60,36.34,0.04,-272.74,-272.74,-49,562,-933,22.5,2.0,-29.3,22.7,2.1,-28.8,5.73,2.49,-28.6,27.8
2012-02-19 00:32:00,0.0,1.9405,0.0010,404.32,0.48,31.7,31.0,138.10,28.51,24.61,36.34,0.04,-272.73,-272.74,-48,562,-933,22.5,1.9,-29.6,22.7,2.0,-29.1,5.73,2.33,-28.6,27.9
2012-02-19 00:33:00,0.0,1.9416,0.0010,404.40,0.41,31.1,27.6,138.10,28.52,24.60,36.34,0.04,-272.74,-272.73,-48,562,-934,22.5,1.9,-29.8,22.7,2.0,-29.3,5.73,2.34,-28.6,27.9
2012-02-19 00:34:00,0.0,1.9411,0.0011,404.32,0.43,34.9,28.5,138.10,28.53,24.60,36.34,0.04,-272.74,-272.74,-49,562,-933,22.5,1.8,-30.0,22.7,1.9,-29.6,5.73,2.50,-28.6,28.0
2012-02-19 00:35:00,0.0,1.9401,0.0010,404.28,0.39,34.0,31.4,138.10,28.54,24.60,36.34,0.04,-272.74,-272.74,-49,562,-934,22.6,1.8,-30.1,22.7,1.9,-29.7,5.73,2.40,-28.5,28.0
2012-02-19 00:36:00,0.0,1.9399,0.0010,404.23,0.40,33.0,32.5,138.10,28.55,24.61,36.34,0.04,-272.73,-272.74,-48,562,-934,22.6,1.8,-30.3,22.8,1.9,-29.8,5.73,2.29,-28.5,28.0
2012-02-19 00:37:00,0.0,1.9395,0.0008,404.02,0.36,34.2,35.3,138.10,28.56,24.60,36.34,0.04,-272.73,-272.74,-48,562,-934,22.6,1.8,-30.5,22.8,1.8,-30.0,5.73,2.39,-28.5,27.6
2012-02-19 00:38:00,0.0,1.9391,0.0010,404.19,0.45,30.6,31.7,138.11,28.56,24.60,36.34,0.04,-272.74,-272.74,-49,562,-934,22.6,1.7,-30.6,22.7,1.8,-30.1,5.73,2.39,-28.7,27.1
2012-02-19 00:39:00,0.0,1.9374,0.0011,404.15,0.45,17.0,21.3,138.12,28.56,24.60,36.35,0.04,-272.73,-272.74,-49,563,-934,22.5,1.8,-30.3,22.7,1.9,-29.9,5.73,2.40,-28.9,26.9
2012-02-19 00:40:00,0.0,1.9364,0.0014,404.43,0.41,12.1,17.8,138.12,28.55,24.61,36.34,0.04,-272.74,-272.73,-49,562,-935,22.5,1.8,-30.1,22.6,1.9,-29.8,5.73,2.51,-29.1,26.6
2012-02-19 00:41:00,0.0,1.9361,0.0010,404.35,0.45,5.7,13.3,138.13,28.53,24.61,36.34,0.04,-272.74,-272.74,-48,562,-934,22.4,1.9,-30.0,22.5,1.9,-29.6,5.73,2.50,-29.3,26.2
2012-02-19 00:42:00,0.0,1.9363,0.0011,404.43,0.44,2.2,8.3,138.14,28.50,24.61,36.34,0.04,-272.73,-272.74,-49,562,-934,22.4,1.9,-29.8,22.4,2.0,-29.5,5.73,2.33,-29.5,25.9
2012-02-19 00:43:00,0.0,1.9368,0.0009,404.39,0.40,0.2,5.0,138.15,28.48,24.60,36.33,0.04,-272.74,-272.74,-50,561,-934,22.3,1.9,-29.7,22.4,2.0,-29.3,5.73,2.28,-29.7,25.7
2012-02-19 00:44:00,0.0,1.9358,0.0010,404.27,0.52,-0.7,1.7,138.15,28.44,24.60,36.33,0.04,-272.74,-272.74,-49,561,-935,22.2,2.0,-29.6,22.3,2.0,-29.3,5.73,2.40,-29.9,25.6
2012-02-19 00:45:00,0.0,1.9337,0.0014,404.04,0.38,-0.7,2.1,138.16,28.41,24.61,36.33,0.04,-272.74,-272.73,-49,561,-935,22.2,1.9,-29.7,22.2,2.0,-29.4,5.73,2.50,-30.1,25.5
2012-02-19 00:46:00,0.0,1.9343,0.0012,404.04,0.42,-1.0,0.3,138.16,28.37,24.60,36.34,0.04,-272.74,-272.74,-49,561,-935,22.1,1.9,-29.8,22.1,2.0,-29.5,5.73,2.38,-30.1,25.9
2012-02-19 00:47:00,0.0,1.9349,0.0010,404.07,0.43,-1.0,0.0,138.15,28.34,24.61,36.33,0.04,-272.74,-272.74,-50,560,-934,22.1,1.9,-30.0,22.1,2.0,-29.6,5.73,2.36,-30.1,26.2
2012-02-19 00:48:00,0.0,1.9352,0.0009,404.07,0.41,-0.7,2.4,138.15,28.32,24.60,36.33,0.04,-272.74,-272.74,-50,560,-934,22.1,1.8,-30.3,22.1,1.9,-29.9,5.73,2.47,-30.0,26.3
2012-02-19 00:49:00,0.0,1.9344,0.0010,404.13,0.44,0.1,5.3,138.15,28.31,24.61,36.33,0.04,-272.74,-272.74,-49,560,-934,22.1,1.8,-30.5,22.2,1.9,-30.2,5.73,2.48,-29.9,26.5
2012-02-19 00:50:00,0.0,1.9349,0.0010,404.15,0.44,1.3,7.1,138.14,28.31,24.60,36.33,0.04,-272.74,-272.74,-49,560,-934,22.1,1.8,-30.7,22.2,1.9,-30.2,5.73,2.31,-29.9,26.6
2012-02-19 00:51:00,0.0,1.9343,0.0011,404.21,0.51,-0.0,3.7,138.14,28.30,24.60,36.32,0.04,-272.74,-272.74,-49,560,-934,22.1,1.8,-30.6,22.2,1.8,-30.2,5.73,2.36,-29.8,26.7
2012-02-19 00:52:00,0.0,1.9342,0.0008,404.08,0.37,1.5,8.3,138.13,28.30,24.60,36.33,0.04,-272.73,-272.74,-49,560,-934,22.1,1.8,-30.6,22.2,1.9,-30.2,5.73,2.50,-29.7,26.8
2012-02-19 00:53:00,0.0,1.9343,0.0009,404.08,0.42,1.4,8.5,138.13,28.30,24.60,36.34,0.04,-272.73,-272.74,-49,560,-933,22.1,1.8,-30.5,22.3,1.9,-30.2,5.73,2.43,-29.6,26.9
2012-02-19 00:54:00,0.0,1.9345,0.0008,404.22,0.41,2.9,12.9,138.13,28.31,24.60,36.33,0.04,-272.74,-272.74,-49,560,-934,22.1,1.8,-30.6,22.3,1.8,-30.2,5.73,2.30,-29.6,26.9
2012-02-19 00:55:00,0.0,1.9351,0.0008,404.32,0.41,7.3,18.1,138.13,28.31,24.60,36.33,0.04,-272.74,-272.73,-48,560,-934,22.1,1.8,-30.5,22.3,1.9,-30.2,5.73,2.40,-29.5,27.0
2012-02-19 00:56:00,0.0,1.9357,0.0009,404.26,0.42,3.7,10.3,138.12,28.32,24.60,36.33,0.04,-272.73,-272.74,-49,560,-934,22.1,1.8,-30.6,22.3,1.9,-30.1,5.73,2.51,-29.5,27.0
2012-02-19 00:57:00,0.0,1.9362,0.0009,404.33,0.44,9.1,16.3,138.12,28.32,24.60,36.33,0.04,-272.74,-272.74,-49,559,-934,22.2,1.8,-30.6,22.3,1.8,-30.1,5.73,2.38,-29.4,27.0
2012-02-19 00:58:00,0.0,1.9375,0.0011,404.48,0.39,10.1,14.7,138.12,28.33,24.60,36.33,0.04,-272.74,-272.74,-49,560,-933,22.2,1.8,-30.7,22.3,1.8,-30.2,5.73,2.30,-29.4,27.1
2012-02-19 00:59:00,0.0,1.9372,0.0009,404.41,0.44,5.8,13.5,138.12,28.34,24.60,36.33,0.04,-272.74,-272.74,-48,560,-933,22.2,1.8,-30.7,22.4,1.8,-30.3,5.73,2.44,-29.3,27.1
2012-02-19 01:00:00,0.0,1.9382,0.0010,404.45,0.45,10.9,16.8,138.12,28.35,24.60,36.34,0.04,-272.73,-272.74,-48,560,-934,22.2,1.8,-30.7,22.4,1.8,-30.3,5.73,2.49,-29.3,27.1
2012-02-19 01:01:00,0.0,1.9385,0.0010,404.46,0.39,13.1,20.0,138.11,28.36,24.60,36.34,0.04,-272.74,-272.74,-49,560,-933,22.2,1.8,-30.8,22.4,1.8,-30.3,5.73,2.35,-29.2,27.1
2012-02-19 01:02:00,0.0,1.9389,0.0010,404.46,0.42,17.4,24.2,138.11,28.37,24.60,36.33,0.04,-272.74,-272.73,-49,560,-933,22.3,1.7,-30.8,22.4,1.8,-30.4,5.73,2.32,-29.2,27.1
2012-02-19 01:03:00,0.0,1.9398,0.0008,404.45,0.42,16.9,21.4,138.11,28.38,24.60,36.34,0.04,-272.74,-272.73,-49,560,-934,22.3,1.7,-30.8,22.4,1.8,-30.4,5.73,2.47,-29.1,27.1
2012-02-19 01:04:00,0.0,1.9403,0.0009,404.61,0.38,17.7,21.6,138.11,28.39,24.60,36.33,0.04,-272.74,-272.74,-48,560,-933,22.3,1.8,-30.7,22.5,1.8,-30.3,5.73,2.46,-29.1,27.2
2012-02-19 01:05:00,0.0,1.9413,0.0010,404.69,0.41,22.6,25.4,138.11,28.40,24.60,36.33,0.04,-272.74,-272.73,-48,560,-934,22.3,1.8,-30.6,22.5,1.8,-30.2,5.73,2.32,-29.0,27.2
2012-02-19 01:06:00,0.0,1.9420,0.0009,404.67,0.39,18.7,23.3,138.11,28.41,24.60,36.34,0.04,-272.74,-272.73,-49,560,-933,22.3,1.8,-30.4,22.5,1.9,-29.9,5.73,2.35,-29.0,27.2
2012-02-19 01:07:00,0.0,1.9425,0.0010,404.70,0.37,20.3,24.5,138.11,28.42,24.60,36.34,0.04,-272.74,-272.73,-49,560,-933,22.3,1.8,-30.2,22.5,1.9,-29.7,5.73,2.49,-28.9,27.3
2012-02-19 01:08:00,0.0,1.9427,0.0008,404.69,0.42,24.2,28.9,138.11,28.43,24.60,36.33,0.04,-272.74,-272.74,-48,560,-933,22.3,1.9,-30.0,22.5,1.9,-29.7,5.73,2.42,-28.9,27.3
2012-02-19 01:09:00,0.0,1.9430,0.0010,404.65,0.49,30.0,29.5,138.11,28.44,24.60,36.34,0.04,-272.74,-272.73,-49,559,-935,22.4,1.9,-30.0,22.5,1.9,-29.6,5.73,2.30,-28.9,27.4
2012-02-19 01:10:00,0.0,1.9428,0.0009,404.63,0.40,23.6,26.7,138.11,28.45,24.60,36.34,0.04,-272.74,-272.73,-48,561,-933,22.4,1.8,-30.1,22.6,1.9,-29.7,5.73,2.41,-28.8,27.5
2012-02-19 01:11:00,0.0,1.9428,0.0011,404.63,0.41,30.1,24.6,138.11,28.46,24.60,36.34,0.04,-272.74,-272.74,-49,561,-934,22.4,1.8,-30.1,22.6,1.9,-29.7,5.73,2.50,-28.8,27.5
2012-02-19 01:12:00,0.0,1.9431,0.0009,404.60,0.40,26.0,26.1,138.10,28.47,24.60,36.34,0.04,-272.74,-272.73,-49,561,-934,22.5,1.8,-30.1,22.6,1.9,-29.6,5.73,2.35,-28.7,27.6
2012-02-19 01:13:00,0.0,1.9433,0.0008,404.63,0.45,26.3,26.0,138.10,28.48,24.60,36.34,0.04,-272.73,-272.73,-48,561,-937,22.4,1.8,-30.2,22.6,1.9,-29.7,5.73,2.32,-28.7,27.7
2012-02-19 01:14:00,0.0,1.9431,0.0008,404.66,0.47,26.6,29.5,138.10,28.49,24.60,36.34,0.04,-272.74,-272.74,-48,562,-934,22.5,1.8,-30.0,22.7,1.9,-29.6,5.73,2.48,-28.7,27.8
2012-02-19 01:15:00,0.0,1.9436,0.0010,404.61,0.42,32.1,28.8,138.10,28.51,24.60,36.34,0.04,-272.74,-272.74,-49,561,-934,22.5,1.8,-30.1,22.7,1.9,-29.6,5.73,2.43,-28.7,27.8
2012-02-19 01:16:00,0.0,1.9426,0.0009,404.37,0.43,31.8,27.3,138.10,28.51,24.60,36.35,0.04,-272.73,-272.74,-49,561,-934,22.5,1.8,-30.1,22.7,1.9,-29.7,5.73,2.29,-28.6,27.8
2012-02-19 01:17:00,0.0,1.9427,0.0009,404.60,0.44,36.9,31.4,138.10,28.52,24.60,36.34,0.04,-272.74,-272.74,-49,562,-934,22.5,1.8,-30.2,22.7,1.9,-29.8,5.73,2.42,-28.6,27.9
2012-02-19 01:18:00,0.0,1.9425,0.0011,404.56,0.42,30.6,26.0,138.10,28.53,24.60,36.33,0.04,-272.74,-272.74,-48,562,-934,22.6,1.8,-30.2,22.7,1.9,-29.8,5.73,2.49,-28.6,28.0
2012-02-19 01:19:00,0.0,1.9422,0.0008,404.47,0.40,31.7,31.4,138.10,28.54,24.60,36.34,0.04,-272.74,-272.74,-49,562,-934,22.6,1.8,-30.1,22.7,1.9,-29.7,5.73,2.31,-28.6,28.1
2012-02-19 01:20:00,0.0,1.9423,0.0010,404.55,0.38,27.1,28.0,138.10,28.56,24.60,36.34,0.04,-272.74,-272.74,-49,562,-934,22.6,1.8,-30.2,22.8,1.9,-29.7,5.73,2.34,-28.5,27.6
2012-02-19 01:21:00,0.0,1.9425,0.0010,404.55,0.38,25.5,27.6,138.11,28.56,24.60,36.34,0.04,-272.74,-272.74,-49,563,-934,22.6,1.8,-30.2,22.8,1.9,-29.7,5.73,2.39,-28.7,27.2
2012-02-19 01:22:00,0.0,1.9419,0.0009,404.63,0.43,11.8,21.6,138.11,28.56,24.60,36.35,0.04,-272.74,-272.74,-49,563,-934,22.6,1.8,-30.2,22.7,1.9,-29.8,5.73,2.44,-28.9,26.9
2012-02-19 01:23:00,0.0,1.9413,0.0009,404.67,0.39,15.6,23.1,138.12,28.55,24.60,36.34,0.04,-272.74,-272.74,-49,563,-935,22.5,1.8,-30.2,22.7,1.9,-29.8,5.73,2.51,-29.1,26.6
2012-02-19 01:24:00,0.0,1.9401,0.0010,404.70,0.43,3.0,11.0,138.13,28.53,24.60,36.34,0.04,-272.74,-272.74,-50,562,-934,22.5,1.8,-30.1,22.6,1.9,-29.7,5.73,2.45,-29.3,26.2
2012-02-19 01:25:00,0.0,1.9392,0.0010,404.62,0.43,3.8,10.8,138.14,28.51,24.60,36.34,0.04,-272.74,-272.74,-49,562,-935,22.4,1.8,-30.1,22.5,1.9,-29.7,5.73,2.31,-29.5,25.9
2012-02-19 01:26:00,0.0,1.9392,0.0009,404.61,0.40,1.0,6.8,138.14,28.49,24.60,36.34,0.04,-272.73,-272.73,-49,562,-935,22.4,1.8,-30.2,22.4,1.9,-29.8,5.73,2.30,-29.6,25.8
2012-02-19 01:27:00,0.0,1.9389,0.0011,404.74,0.43,0.5,6.5,138.15,28.46,24.60,36.34,0.04,-272.74,-272.73,-50,562,-935,22.3,1.8,-30.3,22.4,1.9,-30.0,5.73,2.41,-29.8,25.6
2012-02-19 01:28:00,0.0,1.9372,0.0009,404.46,0.42,-0.3,4.0,138.15,28.43,24.61,36.33,0.04,-272.74,-272.74,-50,561,-934,22.3,1.8,-30.5,22.3,1.9,-30.1,5.73,2.50,-29.9,25.6
2012-02-19 01:29:00,0.0,1.9379,0.0009,404.40,0.41,-0.3,3.1,138.16,28.39,24.60,36.33,0.04,-272.73,-272.74,-50,561,-934,22.3,1.8,-30.5,22.2,1.9,-30.2,5.73,2.38,-30.0,26.0
2012-02-19 01:30:00,0.0,1.9366,0.0010,404.23,0.41,-0.8,1.9,138.15,28.37,24.60,36.34,0.04,-272.74,-272.74,-50,561,-935,22.2,1.8,-30.5,22.2,1.8,-30.2,5.73,2.34,-29.9,26.3
2012-02-19 01:31:00,0.0,1.9363,0.0009,404.25,0.42,-0.3,3.1,138.15,28.35,24.60,36.33,0.04,-272.74,-272.74,-49,560,-934,22.3,1.8,-30.5,22.3,1.8,-30.2,5.73,2.47,-29.8,26.6
2012-02-19 01:32:00,0.0,1.9359,0.0009,404.27,0.45,-0.7,1.8,138.14,28.34,24.60,36.33,0.04,-272.74,-272.74,-50,560,-934,22.3,1.8,-30.7,22.3,1.8,-30.2,5.73,2.46,-29.7,26.7
2012-02-19 01:33:00,0.0,1.9355,0.0010,404.19,0.44,4.0,13.6,138.14,28.33,24.60,36.34,0.04,-272.74,-272.73,-50,563,-934,22.3,1.8,-30.7,22.3,1.8,-30.3,5.73,2.29,-29.6,26.9
2012-02-19 01:34:00,0.0,1.9362,0.0010,404.27,0.44,2.5,9.9,138.14,28.33,24.60,36.33,0.04,-272.74,-272.74,-49,560,-934,22.3,1.8,-30.7,22.3,1.8,-30.3,5.73,2.40,-29.6,27.0
2012-02-19 01:35:00,0.0,1.9360,0.0008,404.44,0.48,2.4,11.3,138.13,28.33,24.60,36.33,0.04,-272.74,-272.74,-49,560,-934,22.3,1.7,-30.8,22.3,1.8,-30.3,5.73,2.50,-29.5,27.1
2012-02-19 01:36:00,0.0,1.9365,0.0010,404.36,0.43,2.1,9.7,138.13,28.34,24.60,36.33,0.04,-272.73,-272.74,-49,560,-934,22.3,1.8,-30.7,22.4,1.8,-30.3,5.73,2.36,-29.4,27.1
2012-02-19 01:37:00,0.0,1.9366,0.0010,404.33,0.40,7.7,15.8,138.12,28.34,24.60,36.33,0.04,-272.74,-272.74,-49,560,-934,22.3,1.8,-30.7,22.4,1.8,-30.3,5.73,2.31,-29.4,27.2
2012-02-19 01:38:00,0.0,1.9375,0.0010,404.32,0.42,6.4,13.2,138.12,28.35,24.60,36.33,0.04,-272.74,-272.74,-49,561,-934,22.3,1.8,-30.6,22.4,1.8,-30.2,5.73,2.46,-29.3,27.2
2012-02-19 01:39:00,0.0,1.9374,0.0008,404.42,0.47,9.1,17.9,138.12,28.36,24.60,36.33,0.04,-272.74,-272.74,-49,560,-934,22.3,1.8,-30.6,22.4,1.8,-30.1,5.73,2.47,-29.3,27.3
2012-02-19 01:40:00,0.0,1.9378,0.0009,404.38,0.43,11.0,19.2,138.12,28.37,24.60,36.33,0.04,-272.73,-272.73,-49,560,-934,22.3,1.8,-30.6,22.5,1.8,-30.2,5.73,2.30,-29.2,27.3
2012-02-19 01:41:00,0.0,1.9382,0.0007,404.32,0.40,8.3,16.3,138.12,28.38,24.60,36.34,0.04,-272.73,-272.74,-49,560,-934,22.3,1.8,-30.6,22.5,1.8,-30.2,5.73,2.36,-29.2,27.3
2012-02-19 01:42:00,0.0,1.9390,0.0009,404.50,0.46,16.2,22.3,138.12,28.39,24.60,36.34,0.04,-272.74,-272.74,-49,560,-934,22.4,1.8,-30.6,22.5,1.8,-30.2,5.73,2.50,-29.1,27.3
2012-02-19 01:43:00,0.0,1.9394,0.0012,404.36,0.44,12.0,18.9,138.11,28.40,24.60,36.33,0.04,-272.73,-272.74,-49,561,-934,22.4,1.8,-30.5,22.5,1.8,-30.0,5.73,2.41,-29.1,27.3
2012-02-19 01:44:00,0.0,1.9403,0.0009,404.62,0.46,20.2,25.5,138.11,28.41,24.60,36.33,0.04,-272.74,-272.73,-49,561,-934,22.4,1.8,-30.3,22.5,1.9,-30.0,5.73,2.29,-29.0,27.3
2012-02-19 01:45:00,0.0,1.9407,0.0009,404.48,0.36,18.3,23.9,138.11,28.42,24.60,36.34,0.04,-272.73,-272.74,-49,560,-934,22.4,1.8,-30.2,22.5,1.9,-29.8,5.73,2.43,-29.0,27.3
2012-02-19 01:46:00,0.0,1.9403,0.0010,404.57,0.42,17.5,24.6,138.11,28.44,24.60,36.33,0.04,-272.74,-272.74,-50,560,-933,22.4,1.9,-30.1,22.6,1.9,-29.7,5.73,2.49,-29.0,27.3
2012-02-19 01:47:00,0.0,1.9412,0.0009,404.52,0.38,24.3,27.8,138.11,28.45,24.60,36.34,0.04,-272.73,-272.74,-49,561,-934,22.5,1.8,-30.1,22.6,1.9,-29.7,5.73,2.34,-28.9,27.4
2012-02-19 01:48:00,0.0,1.9410,0.0010,404.50,0.38,21.0,22.8,138.11,28.46,24.60,36.34,0.04,-272.74,-272.73,-49,561,-934,22.5,1.8,-30.1,22.6,1.9,-29.7,5.73,2.33,-28.9,27.4
2012-02-19 01:49:00,0.0,1.9409,0.0009,404.50,0.44,20.4,25.5,138.11,28.47,24.60,36.34,0.04,-272.74,-272.73,-49,561,-934,22.5,1.8,-30.1,22.6,1.9,-29.6,5.73,2.49,-28.8,27.5
2012-02-19 01:50:00,0.0,1.9405,0.0009,404.43,0.52,27.8,25.9,138.11,28.49,24.60,36.34,0.04,-272.73,-272.74,-49,561,-934,22.5,1.8,-30.0,22.7,1.9,-29.7,5.73,2.42,-28.8,27.5
2012-02-19 01:51:00,0.0,1.9405,0.0009,404.45,0.42,30.5,30.7,138.11,28.50,24.60,36.34,0.04,-272.74,-272.74,-48,561,-933,22.5,1.8,-30.0,22.7,1.9,-29.6,5.73,2.29,-28.8,27.5
2012-02-19 01:52:00,0.0,1.9406,0.0011,404.34,0.43,20.2,24.7,138.10,28.50,24.60,36.35,0.04,-272.74,-272.74,-49,562,-934,22.5,1.8,-30.2,22.7,1.9,-29.8,5.73,2.43,-28.8,27.6
2012-02-19 01:53:00,0.0,1.9411,0.0008,404.38,0.39,25.8,32.2,138.10,28.51,24.60,36.34,0.04,-272.74,-272.74,-49,562,-934,22.5,1.8,-30.3,22.7,1.9,-29.8,5.73,2.49,-28.7,27.7
2012-02-19 01:54:00,0.0,1.9410,0.0012,404.32,0.39,29.7,28.2,138.10,28.52,24.60,36.34,0.04,-272.73,-272.73,-49,561,-934,22.6,1.8,-30.3,22.7,1.8,-29.9,5.73,2.30,-28.7,27.8
2012-02-19 01:55:00,0.0,1.9414,0.0009,404.36,0.47,28.6,29.6,138.10,28.53,24.60,36.34,0.04,-272.74,-272.74,-49,562,-934,22.6,1.8,-30.4,22.7,1.8,-29.9,5.73,2.37,-28.7,27.8
2012-02-19 01:56:00,0.0,1.9414,0.0009,404.29,0.40,29.4,30.0,138.10,28.55,24.60,36.35,0.04,-272.74,-272.74,-49,562,-934,22.6,1.8,-30.5,22.8,1.8,-30.0,5.73,2.50,-28.6,27.9
2012-02-19 01:57:00,0.0,1.9414,0.0010,404.19,0.41,34.5,27.5,138.10,28.56,24.61,36.34,0.04,-272.74,-272.73,-49,562,-934,22.6,1.7,-30.5,22.8,1.8,-30.0,5.73,2.35,-28.6,28.0
2012-02-19 01:58:00,0.0,1.9427,0.0011,404.41,0.39,26.7,25.7,138.10,28.57,24.60,36.34,0.04,-272.74,-272.74,-49,562,-934,22.7,1.7,-30.7,22.8,1.8,-30.2,5.73,2.32,-28.6,28.0
2012-02-19 01:59:00,0.0,1.9428,0.0011,404.48,0.39,30.7,32.0,138.10,28.58,24.60,36.33,0.04,-272.74,-272.74,-49,563,-934,22.7,1.7,-30.8,22.8,1.8,-30.3,5.73,2.50,-28.6,28.0
2012-02-19 02:00:00,0.0,1.9428,0.0010,404.37,0.45,32.1,27.8,138.10,28.59,24.60,36.34,0.04,-272.74,-272.74,-49,563,-934,22.7,1.7,-30.8,22.9,1.8,-30.3,5.73,2.40,-28.5,28.1
2012-02-19 02:01:00,0.0,1.9428,0.0011,404.41,0.45,34.5,24.6,138.10,28.61,24.60,36.34,0.04,-272.74,-272.74,-49,563,-934,22.7,1.7,-30.9,22.9,1.7,-30.4,5.73,2.29,-28.5,28.0
2012-02-19 02:02:00,0.0,1.9426,0.0008,404.28,0.39,35.7,28.8,138.10,28.61,24.61,36.34,0.04,-272.74,-272.74,-49,563,-934,22.7,1.7,-30.9,22.9,1.7,-30.5,5.73,2.38,-28.6,27.4
2012-02-19 02:03:00,0.0,1.9425,0.0009,404.51,0.41,18.8,20.4,138.11,28.61,24.61,36.34,0.04,-272.74,-272.74,-49,563,-935,22.7,1.7,-30.9,22.8,1.7,-30.5,5.73,2.39,-28.8,27.0
2012-02-19 02:04:00,0.0,1.9420,0.0010,404.59,0.39,20.8,24.2,138.12,28.61,24.61,36.34,0.04,-272.74,-272.74,-50,563,-935,22.6,1.7,-31.0,22.8,1.7,-30.6,5.73,2.45,-29.0,26.7
2012-02-19 02:05:00,0.0,1.9416,0.0010,404.62,0.40,10.5,19.6,138.12,28.59,24.61,36.35,0.04,-272.74,-272.74,-50,563,-934,22.6,1.7,-31.0,22.7,1.7,-30.6,5.73,2.51,-29.2,26.4
2012-02-19 02:06:00,0.0,1.9412,0.0010,404.75,0.40,3.1,8.8,138.13,28.57,24.60,36.35,0.04,-272.74,-272.73,-49,563,-935,22.5,1.7,-31.1,22.6,1.7,-30.7,5.73,2.46,-29.4,26.1
2012-02-19 02:07:00,0.0,1.9396,0.0011,404.67,0.42,3.0,9.7,138.14,28.55,24.61,36.34,0.04,-272.74,-272.74,-49,563,-935,22.4,1.7,-31.0,22.5,1.7,-30.7,5.73,2.33,-29.6,25.9
2012-02-19 02:08:00,0.0,1.9392,0.0009,404.63,0.41,0.5,6.1,138.15,28.52,24.60,36.34,0.04,-272.74,-272.74,-50,563,-934,22.4,1.7,-30.9,22.4,1.8,-30.6,5.73,2.29,-29.8,25.8
2012-02-19 02:09:00,0.0,1.9384,0.0011,404.49,0.46,-0.4,3.1,138.15,28.49,24.61,36.34,0.04,-272.74,-272.74,-50,561,-934,22.3,1.7,-31.0,22.3,1.8,-30.6,5.73,2.38,-30.0,25.6
2012-02-19 02:10:00,0.0,1.9383,0.0010,404.44,0.38,-0.1,7.2,138.16,28.45,24.61,36.33,0.04,-272.74,-272.74,-50,561,-934,22.2,1.7,-30.9,22.3,1.8,-30.6,5.73,2.45,-30.1,25.5
2012-02-19 02:11:00,0.0,1.9377,0.0009,404.39,0.47,-1.0,0.0,138.16,28.42,24.61,36.33,0.04,-272.74,-272.74,-50,561,-935,22.2,1.7,-30.8,22.2,1.8,-30.5,5.73,2.39,-30.2,26.0
2012-02-19 02:12:00,0.0,1.9375,0.0009,404.32,0.40,-0.1,5.2,138.15,28.40,24.61,36.33,0.04,-272.74,-272.74,-50,561,-935,22.2,1.7,-30.8,22.2,1.8,-30.4,5.73,2.46,-30.2,26.3
2012-02-19 02:13:00,0.0,1.9369,0.0009,404.34,0.44,-0.9,1.0,138.15,28.38,24.60,36.33,0.04,-272.74,-272.74,-49,561,-934,22.2,1.7,-30.9,22.3,1.8,-30.4,5.73,2.48,-30.1,26.4
2012-02-19 02:14:00,0.0,1.9370,0.0009,404.29,0.51,1.3,10.1,138.14,28.36,24.60,36.33,0.04,-272.73,-272.74,-49,560,-934,22.2,1.7,-30.8,22.3,1.8,-30.4,5.73,2.31,-30.0,26.6
2012-02-19 02:15:00,0.0,1.9369,0.0010,404.33,0.39,-0.2,4.7,138.14,28.36,24.60,36.33,0.04,-272.74,-272.74,-51,562,-935,22.3,1.7,-30.8,22.3,1.8,-30.5,5.73,2.35,-29.9,26.7
2012-02-19 02:16:00,0.0,1.9374,0.0008,404.29,0.48,-0.7,1.5,138.13,28.36,24.60,36.33,0.04,-272.74,-272.74,-49,560,-934,22.2,1.7,-30.8,22.3,1.8,-30.5,5.73,2.50,-29.8,26.8
2012-02-19 02:17:00,0.0,1.9376,0.0010,404.51,0.39,1.9,8.4,138.13,28.36,24.60,36.32,0.04,-272.74,-272.74,-49,560,-934,22.3,1.7,-30.9,22.4,1.8,-30.5,5.73,2.40,-29.7,26.9
2012-02-19 02:18:00,0.0,1.9386,0.0009,404.45,0.49,1.8,7.2,138.13,28.36,24.60,36.33,0.04,-272.73,-272.74,-49,560,-934,22.3,1.7,-30.8,22.4,1.8,-30.4,5.73,2.30,-29.7,27.0